[[{"header":{"parameterUnit":"m.s-1","parameterCategory":1,"la1":30.2991,"la2":30.254,"lo1":-89.0895,"lo2":-89.0444,"dx":0.0017,"dy":0.0017,"nx":28,"ny":28,"refTime":"2022-11-17T15:00:00:Z","depth":0,"parameterNumber":2,"parameterNumberName":"U-component_of_WINDS"},"data":[0,0,0,0,0,0,0,0,0,0,0,0,0,0,0,0,0,0,0,0,0,0,0,0,0,0,0,0,0,0,0,0,0,0,0,0,0,0,0,0,0,0,0,0,0,0,0,0,0,0,0,0,0,0,0,0,0,0,1.9527,1.9527,0,1.9511,1.9511,1.951,1.9502,1.9502,1.9502,1.9502,1.9484,1.9483,1.9483,0,0,0,0,0,0,0,0,0,0,0,0,0,1.955,1.955,1.9527,1.9527,1.9527,1.9511,1.9511,1.951,1.9502,1.9502,1.9502,1.9502,1.9484,1.9483,1.9483,0,0,0,0,0,0,0,0,0,0,0,0,0,1.9537,1.9549,1.9527,1.9521,1.952,1.9511,1.9511,1.951,1.9502,1.9502,1.9502,1.9502,1.9484,1.9483,1.9483,1.9478,0,0,1.948,1.948,0,0,0,0,0,0,0,0,1.9538,1.9537,1.9522,1.9521,1.952,1.9509,1.9512,1.9499,1.9502,1.9509,1.9502,1.9502,1.9492,1.949,1.9487,1.9477,1.9476,1.948,1.948,1.9479,1.9479,0,0,0,0,0,0,0,1.9539,1.9537,1.9521,1.9522,1.9521,1.9518,1.9517,1.9509,1.95,1.9508,1.9508,1.9506,1.9491,1.9488,1.9487,1.9476,1.948,1.948,1.9479,1.9479,1.9461,1.9461,0,0,0,0,0,0,1.9541,1.9538,1.9521,1.952,1.953,1.9518,1.9516,1.9512,1.9501,1.9499,1.9506,1.9506,1.9489,1.9488,1.9486,1.948,1.9479,1.9479,1.9478,1.9461,1.9461,1.9461,0,0,0,0,0,0,1.9542,1.954,1.9522,1.9529,1.9526,1.9518,1.9514,1.9512,1.9509,1.9499,1.9497,1.9504,1.9489,1.9487,1.948,1.9479,1.9478,1.9478,1.9461,1.9461,1.9461,1.9468,0,0,0,0,0,0,1.9542,1.954,1.9538,1.9529,1.9526,1.9516,1.9513,1.9512,1.9508,1.9507,1.9497,1.9495,1.9489,1.9481,1.9479,1.9478,1.9477,1.9461,1.9461,1.9461,1.9467,1.9468,1.9468,0,0,0,0,0,1.9543,1.954,1.9538,1.9536,1.9524,1.9516,1.9515,1.9509,1.9508,1.9506,1.95,1.9495,1.948,1.9481,1.9478,1.9477,1.9461,1.9461,1.9461,1.9467,1.9468,1.9468,0,0,0,0,0,0,1.9549,1.9539,1.9537,1.9531,1.9525,1.9515,1.9513,1.9509,1.9503,1.9502,1.9494,1.9492,1.9486,1.9481,1.9482,1.9472,1.947,1.947,1.9475,1.9476,1.9476,1.9477,1.9476,0,0,0,0,0,1.955,1.9545,1.9536,1.9532,1.9529,1.9521,1.9518,1.9514,1.9507,1.9504,1.9497,1.949,1.9484,1.9479,1.9473,1.9467,1.9464,1.9465,1.9465,1.9465,1.9465,1.9461,1.9461,1.9461,1.9461,1.9461,0,0,1.9551,1.9545,1.9542,1.9533,1.9528,1.9523,1.9519,1.9514,1.951,1.9503,1.9496,1.9491,1.9483,1.9476,1.9473,1.9472,1.9465,1.9465,1.9466,1.9465,1.9461,1.9461,1.9461,1.9461,1.9461,1.9461,0,0,1.955,1.9545,1.9541,1.9536,1.9529,1.9524,1.9523,1.9514,1.9511,1.9504,1.9499,1.9494,1.9483,1.9477,1.9473,1.9471,1.9467,1.9469,1.9471,1.9467,1.9468,1.9467,1.9467,1.9467,1.9469,1.9469,1.9469,0,1.9552,1.9545,1.9539,1.9535,1.9531,1.9525,1.9521,1.9516,1.9507,1.9504,1.9503,1.9489,1.9483,1.9475,1.9475,1.9472,1.947,1.947,1.9468,1.9468,1.9468,1.9467,1.9467,1.9469,1.9469,1.9469,1.9469,0,1.9548,1.9543,1.9541,1.9533,1.9528,1.9524,1.9517,1.9513,1.951,1.9505,1.9498,1.9491,1.9483,1.9481,1.9477,1.9473,1.9472,1.947,1.9468,1.9468,1.9467,1.9467,1.947,1.9469,1.9469,1.9469,0,0,1.955,1.954,1.9539,1.9535,1.9527,1.9523,1.9518,1.9511,1.9508,1.9502,1.9497,1.9488,1.9486,1.9482,1.9477,1.9474,1.9473,1.9472,1.9472,1.9472,1.9468,1.947,1.9469,1.9471,1.9471,1.9471,1.9469,0,1.9548,1.954,1.9535,1.9529,1.9524,1.9519,1.9515,1.9509,1.9504,1.9499,1.9494,1.9488,1.9486,1.9483,1.948,1.9474,1.9472,1.9474,1.9466,1.9466,1.9468,1.9469,1.9471,1.9469,1.9468,1.9468,1.9468,0,1.9545,1.954,1.9533,1.9526,1.9523,1.952,1.9513,1.9509,1.9502,1.9499,1.9494,1.949,1.9484,1.9483,1.9475,1.9477,1.9473,1.947,1.9469,1.9468,1.9467,1.9467,1.9468,1.9468,1.9468,1.9468,1.9468,0,1.9547,1.9538,1.9533,1.953,1.9521,1.9519,1.9515,1.9509,1.9505,1.9499,1.9497,1.949,1.9486,1.9481,1.9475,1.9475,1.9467,1.9466,1.9464,1.9465,1.9463,1.9463,1.9463,1.9461,1.9461,1.9461,1.9461,0,1.9545,1.9541,1.9534,1.9531,1.9526,1.9521,1.9516,1.9512,1.9506,1.9502,1.9497,1.9493,1.9485,1.948,1.9475,1.947,1.9468,1.9465,1.9464,1.9465,1.9466,1.9462,1.9462,1.9461,1.9461,1.9461,1.9461,0,1.9546,1.9541,1.9536,1.9528,1.9526,1.9523,1.9517,1.9513,1.9509,1.9504,1.9502,1.9495,1.9489,1.9482,1.9474,1.947,1.9465,1.9463,1.9467,1.9466,1.9465,1.9465,1.9463,1.9462,1.9461,1.9461,1.9461,0,1.9545,1.9542,1.9535,1.9532,1.9529,1.9524,1.9521,1.9515,1.9511,1.9504,1.9502,1.9495,1.949,1.948,1.9474,1.9467,1.9465,1.9465,1.9464,1.9466,1.9465,1.9465,1.9465,1.9465,1.9465,1.9465,1.9465,0,1.9544,1.9542,1.9538,1.9532,1.9528,1.9524,1.9519,1.9517,1.951,1.9506,1.95,1.9496,1.9488,1.9482,1.9475,1.947,1.9466,1.9466,1.9465,1.9466,1.9469,1.9467,1.9467,1.9465,1.9465,1.9465,1.9465,1.9465,1.9544,1.9542,1.9536,1.9531,1.9527,1.9523,1.952,1.9515,1.951,1.9504,1.9501,1.9495,1.9488,1.9479,1.9474,1.9469,1.9468,1.9467,1.9467,1.9467,1.9467,1.947,1.9468,1.9468,1.9468,1.9468,1.9468,0,1.9543,1.9539,1.9535,1.9529,1.9525,1.9523,1.9517,1.9514,1.9509,1.9504,1.9499,1.9492,1.9486,1.948,1.9474,1.9471,1.9469,1.9469,1.9469,1.9468,1.9468,1.9469,1.9471,1.9471,1.9471,1.9471,1.9471,1.9471,1.9542,1.9537,1.9534,1.9527,1.9524,1.9518,1.9516,1.9512,1.9507,1.95,1.9496,1.9492,1.9486,1.9479,1.9474,1.9472,1.947,1.9471,1.9468,1.9468,1.9468,1.9468,1.9469,1.947,1.947,1.9468,1.9468,1.9468]},{"header":{"parameterUnit":"m.s-1","parameterCategory":1,"la1":30.2991,"la2":30.254,"lo1":-89.0895,"lo2":-89.0444,"dx":0.0017,"dy":0.0017,"nx":28,"ny":28,"refTime":"2022-11-17T15:00:00:Z","depth":0,"parameterNumber":3,"parameterNumberName":"V-component_of_WINDS"},"data":[0,0,0,0,0,0,0,0,0,0,0,0,0,0,0,0,0,0,0,0,0,0,0,0,0,0,0,0,0,0,0,0,0,0,0,0,0,0,0,0,0,0,0,0,0,0,0,0,0,0,0,0,0,0,0,0,0,0,-4.9583,-4.9584,0,-4.9626,-4.9627,-4.9627,-4.9608,-4.9607,-4.9606,-4.9605,-4.9645,-4.9647,-4.9649,0,0,0,0,0,0,0,0,0,0,0,0,0,-4.9483,-4.9485,-4.9583,-4.9584,-4.9585,-4.9626,-4.9627,-4.9627,-4.9608,-4.9607,-4.9606,-4.9605,-4.9644,-4.9646,-4.9649,0,0,0,0,0,0,0,0,0,0,0,0,0,-4.9526,-4.9485,-4.9583,-4.958,-4.958,-4.9626,-4.9627,-4.9627,-4.9609,-4.9607,-4.9605,-4.9604,-4.9643,-4.9646,-4.9649,-4.9699,0,0,-4.9659,-4.966,0,0,0,0,0,0,0,0,-4.9523,-4.953,-4.958,-4.958,-4.9581,-4.961,-4.9606,-4.9651,-4.9609,-4.9598,-4.9605,-4.9603,-4.9634,-4.9638,-4.9649,-4.9701,-4.9703,-4.9659,-4.9661,-4.9662,-4.9663,0,0,0,0,0,0,0,-4.9521,-4.9528,-4.96,-4.9581,-4.9581,-4.9576,-4.958,-4.9614,-4.9624,-4.9599,-4.9597,-4.9603,-4.9634,-4.9646,-4.965,-4.9703,-4.9659,-4.9661,-4.9663,-4.9664,-4.98,-4.9802,0,0,0,0,0,0,-4.9518,-4.9525,-4.9599,-4.9601,-4.9548,-4.9579,-4.9584,-4.9602,-4.9624,-4.9626,-4.9604,-4.9602,-4.9642,-4.9647,-4.9651,-4.9712,-4.9662,-4.9665,-4.9667,-4.9798,-4.9801,-4.9802,0,0,0,0,0,0,-4.9516,-4.9525,-4.9597,-4.9563,-4.9572,-4.9582,-4.9603,-4.9604,-4.9616,-4.9628,-4.9629,-4.9615,-4.9641,-4.9647,-4.9688,-4.9713,-4.9666,-4.9669,-4.9796,-4.9799,-4.9801,-4.9834,0,0,0,0,0,0,-4.9513,-4.9524,-4.9544,-4.9564,-4.9574,-4.9634,-4.9605,-4.9606,-4.9622,-4.9619,-4.9639,-4.964,-4.964,-4.9684,-4.9691,-4.9717,-4.9671,-4.9794,-4.9797,-4.9801,-4.9831,-4.9838,-4.9844,0,0,0,0,0,-4.951,-4.955,-4.9545,-4.9554,-4.9599,-4.9636,-4.9641,-4.9641,-4.9624,-4.9644,-4.9652,-4.964,-4.971,-4.9688,-4.9696,-4.9723,-4.9792,-4.9797,-4.98,-4.9828,-4.9836,-4.9843,0,0,0,0,0,0,-4.953,-4.9552,-4.9547,-4.9595,-4.9614,-4.9632,-4.9657,-4.965,-4.9673,-4.9669,-4.9667,-4.9672,-4.9715,-4.9723,-4.9699,-4.9774,-4.9748,-4.9754,-4.9767,-4.9775,-4.9781,-4.9778,-4.9674,0,0,0,0,0,-4.9541,-4.957,-4.9587,-4.9628,-4.9638,-4.9646,-4.9662,-4.9661,-4.968,-4.9687,-4.9698,-4.9715,-4.9741,-4.9758,-4.9783,-4.9832,-4.9836,-4.9855,-4.9861,-4.9866,-4.9871,-4.9899,-4.9908,-4.9816,-4.9816,-4.9815,0,0,-4.9562,-4.9578,-4.9596,-4.9633,-4.9647,-4.9677,-4.9653,-4.9684,-4.9706,-4.9691,-4.9731,-4.974,-4.976,-4.9806,-4.9826,-4.9814,-4.9898,-4.9871,-4.9875,-4.9878,-4.9904,-4.9913,-4.9921,-4.9818,-4.9818,-4.9817,0,0,-4.9616,-4.9631,-4.9668,-4.9683,-4.9706,-4.9712,-4.9721,-4.9741,-4.9747,-4.9787,-4.9777,-4.9803,-4.9847,-4.9862,-4.9876,-4.9938,-4.9928,-4.9946,-4.9979,-5.0006,-5.0013,-5.002,-5.0042,-5.0051,-4.9951,-4.9951,-4.9951,0,-4.964,-4.9685,-4.9687,-4.9721,-4.9737,-4.9727,-4.9764,-4.9779,-4.9808,-4.9819,-4.9805,-4.9863,-4.9875,-4.9925,-4.9941,-4.9952,-4.9962,-4.9944,-5.0012,-5.0019,-5.0025,-5.0046,-5.0055,-4.9953,-4.9953,-4.9953,-4.9953,0,-4.9713,-4.9745,-4.9771,-4.9802,-4.9822,-4.9856,-4.9863,-4.9883,-4.9881,-4.9888,-4.9929,-4.9944,-4.9973,-4.9984,-4.9981,-5.0034,-5.0026,-5.0012,-4.9987,-5.0036,-5.0056,-5.0064,-4.9956,-4.9955,-4.9955,-4.9954,0,0,-4.9779,-4.9813,-4.9823,-4.9837,-4.9863,-4.9887,-4.9922,-4.9951,-4.9969,-4.9989,-5.0018,-5.0058,-5.0046,-5.0061,-5.006,-5.0084,-5.0134,-5.0068,-5.0068,-5.008,-5.0194,-5.0204,-5.0214,-5.0128,-5.013,-5.0131,-5.0192,0,-4.9836,-4.9899,-4.9902,-4.9959,-4.9988,-4.9981,-5.0011,-5.003,-5.0038,-5.0063,-5.0071,-5.01,-5.0081,-5.0091,-5.0114,-5.0123,-5.0157,-5.0119,-5.0154,-5.0156,-5.015,-5.0224,-5.0235,-5.0292,-5.02,-5.0202,-5.0203,0,-4.991,-4.9936,-4.9996,-5.0019,-5.0032,-5.0059,-5.0087,-5.0112,-5.0133,-5.0137,-5.0156,-5.0152,-5.0188,-5.0162,-5.021,-5.0184,-5.0199,-5.0206,-5.0208,-5.0211,-5.0182,-5.023,-5.0311,-5.0319,-5.0215,-5.0214,-5.0213,0,-4.9953,-5.0003,-5.0045,-5.0058,-5.0086,-5.0106,-5.0118,-5.0139,-5.0157,-5.0181,-5.0193,-5.022,-5.0235,-5.0256,-5.026,-5.024,-5.0309,-5.0283,-5.0313,-5.0313,-5.0327,-5.0326,-5.0412,-5.0337,-5.0337,-5.0337,-5.0336,0,-5.0016,-5.0053,-5.0066,-5.0092,-5.0134,-5.0138,-5.0178,-5.0189,-5.0208,-5.0235,-5.023,-5.0256,-5.0259,-5.0286,-5.0289,-5.0329,-5.0336,-5.034,-5.034,-5.034,-5.034,-5.035,-5.0346,-5.0339,-5.0338,-5.0338,-5.0337,0,-5.007,-5.0081,-5.0127,-5.0151,-5.0158,-5.0188,-5.0208,-5.0233,-5.0241,-5.0277,-5.0285,-5.0297,-5.0329,-5.0335,-5.0371,-5.0373,-5.0422,-5.0418,-5.0415,-5.0415,-5.0445,-5.0442,-5.0539,-5.0553,-5.0469,-5.047,-5.047,0,-5.011,-5.0139,-5.0167,-5.0186,-5.02,-5.0231,-5.025,-5.0256,-5.0276,-5.0304,-5.0325,-5.0357,-5.0382,-5.0433,-5.0444,-5.0472,-5.0469,-5.0502,-5.0473,-5.0473,-5.047,-5.0469,-5.0472,-5.0507,-5.0508,-5.0508,-5.0509,0,-5.0178,-5.0183,-5.0212,-5.0243,-5.0267,-5.0291,-5.0314,-5.033,-5.0338,-5.0361,-5.0395,-5.0415,-5.0454,-5.0485,-5.0514,-5.0525,-5.0519,-5.0518,-5.0527,-5.0527,-5.0525,-5.0527,-5.043,-5.0516,-5.0515,-5.0515,-5.0514,-5.0514,-5.0227,-5.0253,-5.0278,-5.031,-5.0329,-5.0351,-5.0377,-5.0389,-5.0418,-5.0451,-5.0452,-5.0489,-5.0511,-5.0549,-5.0563,-5.0591,-5.0581,-5.0593,-5.0596,-5.0599,-5.0602,-5.0521,-5.0596,-5.0596,-5.0596,-5.0596,-5.0595,0,-5.0296,-5.0312,-5.0342,-5.0376,-5.0402,-5.0396,-5.0422,-5.0444,-5.0477,-5.0498,-5.0525,-5.0563,-5.0594,-5.0609,-5.064,-5.0659,-5.0657,-5.0667,-5.0666,-5.0669,-5.0609,-5.0599,-5.0669,-5.0669,-5.0669,-5.0669,-5.0669,-5.0669,-5.0335,-5.0379,-5.0387,-5.044,-5.0456,-5.0493,-5.0509,-5.0529,-5.0547,-5.0591,-5.0618,-5.0628,-5.0647,-5.068,-5.0708,-5.0711,-5.0723,-5.0734,-5.0736,-5.068,-5.0673,-5.0666,-5.0656,-5.0737,-5.0737,-5.0794,-5.0794,-5.0794]}]]